Regional Weather Roundup
Issued by NWS

Home | Current Version | Previous Version | Graphics & Text | Print | Product List | Glossary On
Versions: 1 2 3 4 5 6 7 8 9 10 11 12 13 14 15 16 17 18 19 20 21 22 23 24 25 26 27 28 29 30 31 32 33 34 35 36 37 38 39 40 41 42 43 44 45 46 47 48 49 50
000
ASUS43 KBIS 011410
RWRND

NORTH DAKOTA REGIONAL WEATHER ROUNDUP
NATIONAL WEATHER SERVICE BISMARCK ND
900 AM CDT FRI AUG 01 2014

NOTE: "FAIR" INDICATES FEW OR NO CLOUDS BELOW 12,000 FEET WITH NO
SIGNIFICANT WEATHER AND/OR OBSTRUCTIONS TO VISIBILITY.


NDZ001>003-009>011-017-011500-
NORTHWEST NORTH DAKOTA

CITY           SKY/WX    TMP DP  RH WIND       PRES   REMARKS
WILLISTON      MOSUNNY   69  56  62 N13       30.08R
MINOT          SUNNY     66  60  81 N3        30.08R
MINOT AFB      SUNNY     66  64  93 E2        30.08R
$$

NDZ018>021-031>035-040>046-011500-
SOUTHWEST NORTH DAKOTA

CITY           SKY/WX    TMP DP  RH WIND       PRES   REMARKS
BISMARCK       SUNNY     69  58  67 E5        30.08R
DICKINSON      SUNNY     65  57  75 E5        30.04S
GARRISON         N/A     68  61  78 SE5       30.07S
HETTINGER ARPT SUNNY     65  56  72 CALM      30.08R
$$

NDZ004>008-012>016-024-026-027-054-011500-
NORTHEAST NORTH DAKOTA

CITY           SKY/WX    TMP DP  RH WIND       PRES   REMARKS
GRAND FORKS    SUNNY     67  61  81 N6        30.06R
GRND FRKS AFB  SUNNY     67  63  86 NE5       30.07S
DEVILS LAKE    SUNNY     70  59  68 E3        30.08R
$$

NDZ022-023-025-028>030-036>039-047>053-011500-
SOUTHEAST NORTH DAKOTA

CITY           SKY/WX    TMP DP  RH WIND       PRES   REMARKS
FARGO          SUNNY     67  61  81 N3        30.06S
JAMESTOWN      SUNNY     69  60  73 N3        30.08S
$$



USA.gov is the U.S. government's official web portal to all federal, state and local government web resources and services.